Miscellaneous Local Product
Issued by NWS North Platte, NE

Home | Current Version | Previous Version | Graphics & Text | Print | Product List | Glossary On
Versions: 1 2 3 4 5 6 7 8 9 10 11 12 13 14 15 16 17 18 19 20 21 22 23 24 25 26 27 28 29 30 31 32 33 34 35 36 37 38 39 40 41 42 43 44 45 46 47 48 49 50
000
AXUS43 KLBF 261710
MISLBF


WESTERN AND NORTH CENTRAL NEBRASKA HOURLY WEATHER ROUNDUP
NATIONAL WEATHER SERVICE NORTH PLATTE NE
1100 AM CST MON JAN 26 2015

***STATIONS NOT REPORTING VARIABLES SUCH AS SKY/WEATHER OR
PRESSURE ARE PROVIDED BY THE NEBRASKA DEPARTMENT OF
ROADS...RAWS...AND APRS NETWORKS...AND ARE NOT UNDER
NATIONAL WEATHER SERVICE QUALITY CONTROL***

...OBSERVATIONS IN AND NEAR THE EASTERN PANHANDLE OF NEBRASKA...

CITY           SKY/WX    TMP DP  RH WIND       PRES   REMARKS
PINE RIDGE     SUNNY     51  33  50 SW7       30.11R
CHADRON        MOSUNNY   52  33  48 W20       30.13R
ALLIANCE       SUNNY     48  33  56 W14       30.15R
SIDNEY         SUNNY     57  30  35 NW14      30.20R
$$

...OBSERVATIONS IN NORTH CENTRAL NEBRASKA...

CITY           SKY/WX    TMP DP  RH WIND       PRES   REMARKS
VALENTINE      SUNNY     52  34  50 W13       30.04R
THEDFORD       SUNNY     56  33  41 W16       30.09R
AINSWORTH      SUNNY     53  33  46 NW16G22   30.03R
O`NEILL        SUNNY     52  37  57 NW16      29.99R
ORD            SUNNY     53  33  46 NW13      30.00R
BROKEN BOW     SUNNY     57  34  41 NW24G31   30.03R
$$

...OBSERVATIONS IN SOUTHWEST NEBRASKA AND FAR NORTHEAST COLORADO...

CITY           SKY/WX    TMP DP  RH WIND       PRES   REMARKS
WRAY           FAIR      56  30  37 W15       30.20R
HOLYOKE        FAIR      59  30  33 NW10      30.18R
IMPERIAL       SUNNY     58  30  34 NW17      30.15R
OGALLALA       SUNNY     57  32  37 NW17G24   30.15S
NORTH PLATTE   SUNNY     52  33  48 W13       30.11R
MCCOOK         SUNNY     57  32  38 W15       30.11R
LEXINGTON      SUNNY     53  34  49 NW17G25   30.06R
$$

...NORTH PLATTE AREA...

CITY           SKY/WX    TMP DP  RH WIND       PRES   REMARKS
AIRPORT        SUNNY     52  33  48 W13       30.11R
$$

...SOME WEATHER OBSERVATIONS FROM AROUND THE REGION...

CITY           SKY/WX    TMP DP  RH WIND       PRES   REMARKS
DENVER         MOSUNNY   55  27  34 SW12      30.27R
LARAMIE        SUNNY     44  25  47 SW5       30.37R
CHEYENNE       SUNNY     59  20  22 W14G26    30.28R
SCOTTSBLUFF    SUNNY     47  33  58 NW10      30.20R
RAPID CITY     MOSUNNY   62  29  28 NW13      30.06R
PIERRE         SUNNY     49  34  56 NW14      29.99R
WINNER         FAIR      54  35  48 NW18      30.00R
SIOUX FALLS    MOSUNNY   42  36  79 NW18G24   29.87R
OMAHA          MOSUNNY   50  36  58 NW9       29.90R
GRAND ISLAND   SUNNY     54  35  48 NW22G28   30.01R
KANSAS CITY    MOSUNNY   44  33  65 W18       29.94R
WICHITA        MOSUNNY   54  33  45 NW15      30.05R
HAYS           SUNNY     59  34  38 NW18G24   30.09R
LIBERAL        SUNNY     59  37  44 NW16      30.21R
GOODLAND       SUNNY     56  31  38 NW21      30.19R
$$



USA.gov is the U.S. government's official web portal to all federal, state and local government web resources and services.